Weather History for Sitka, AK

Change the Weather History Date:

Monday, March 18, 2013

  Actual Average Record
Temperature  
Mean Temperature 34 °F -  
Max Temperature 37 °F 44 °F 58 °F (1981)
Min Temperature 30 °F 34 °F 18 °F (2006)
Degree Days  
Heating Degree Days 32    
Moisture  
Dew Point 31 °F    
Average Humidity 90    
Maximum Humidity 100    
Minimum Humidity 75    
Precipitation  
Precipitation 0.17 in - - ()
Sea Level Pressure  
Sea Level Pressure 29.93 in    
Wind  
Wind Speed 5 mph (ESE)    
Max Wind Speed 15 mph    
Max Gust Speed 21 mph    
Visibility 6 miles    
Events Fog , Snow    
Averages and records for this station are not official NWS values.
T = Trace of Precipitation, MM = Missing Value Source: NWS Daily Summary

Daily Weather History Graph

Daily Weather History Graph

Search for Another Location

Airport:

Trip Planner

Search our weather history database for the weather conditions in past years. The results will help you decide how hot, cold, wet, or windy it might be!

Date:

Astronomy

Mar. 18, 2013 Rise Set
Actual Time 7:07 AM AKDT 7:12 PM AKDT
Civil Twilight 6:29 AM AKDT 7:50 PM AKDT
Nautical Twilight 5:44 AM AKDT 8:35 PM AKDT
Astronomical Twilight 4:56 AM AKDT 9:24 PM AKDT
Moon 10:04 AM AKDT (3/18) 2:25 AM AKDT (3/18)
Length of Visible Light 13h 20m
Length of Day
12h 04m
Waxing Crescent, 42% of the Moon is Illuminated
Mar 18
Waxing Crescent
Mar 19
First Quarter
Mar 27
Full
Apr 2
Last Quarter
Apr 10
New

Hourly Weather History & Observations

Time (AKDT) Temp. Windchill Dew Point Humidity Pressure Visibility Wind Dir Wind Speed Gust Speed Precip Events Conditions
12:48 AM 35.6 °F - 32.0 °F 87% 29.93 in 10.0 mi Calm Calm - N/A   Overcast
12:53 AM 36.0 °F - 30.9 °F 82% 29.93 in 10.0 mi Calm Calm - N/A   Overcast
1:29 AM 33.8 °F 27.0 °F 32.0 °F 93% 29.93 in 10.0 mi NW 8.1 mph - N/A   Overcast
1:53 AM 33.1 °F 26.9 °F 32.0 °F 96% 29.94 in 10.0 mi NNW 6.9 mph - N/A   Overcast
2:39 AM 32.0 °F 26.4 °F 30.2 °F 93% 29.94 in 10.0 mi NW 5.8 mph - N/A   Overcast
2:53 AM 32.0 °F 26.4 °F 30.9 °F 96% 29.94 in 10.0 mi NNW 5.8 mph - N/A   Overcast
3:13 AM 32.0 °F 26.4 °F 30.2 °F 93% 29.94 in 10.0 mi NW 5.8 mph - N/A   Overcast
3:26 AM 32.0 °F 24.8 °F 30.2 °F 93% 29.94 in 10.0 mi NW 8.1 mph - N/A   Overcast
3:53 AM 32.0 °F 24.2 °F 28.9 °F 88% 29.95 in 10.0 mi NNW 9.2 mph - N/A   Overcast
4:08 AM 32.0 °F 24.8 °F 28.4 °F 87% 29.95 in 10.0 mi NNW 8.1 mph - N/A   Overcast
4:53 AM 32.0 °F 24.2 °F 28.9 °F 88% 29.95 in 10.0 mi NW 9.2 mph - N/A   Overcast
5:00 AM 32.0 °F 23.6 °F 28.4 °F 87% 29.95 in 10.0 mi NW 10.4 mph - N/A   Overcast
5:32 AM 32.0 °F 24.2 °F 28.4 °F 87% 29.95 in 10.0 mi NW 9.2 mph - N/A   Overcast
5:53 AM 32.0 °F 26.4 °F 27.0 °F 82% 29.95 in 10.0 mi NNW 5.8 mph - N/A   Overcast
6:53 AM 32.0 °F 27.5 °F 27.0 °F 82% 29.96 in 10.0 mi NW 4.6 mph - N/A   Overcast
7:53 AM 30.9 °F 26.2 °F 28.0 °F 89% 29.96 in 10.0 mi ENE 4.6 mph - 0.00 in   Overcast
8:18 AM 32.0 °F - 28.4 °F 87% 29.96 in 9.0 mi Calm Calm - N/A   Overcast
8:53 AM 32.0 °F - 30.0 °F 92% 29.97 in 3.0 mi Calm Calm - 0.00 in Snow Light Snow
8:58 AM 32.0 °F - 30.2 °F 93% 29.97 in 2.5 mi Calm Calm - 0.00 in Snow Light Snow
9:10 AM 30.2 °F 25.4 °F 28.4 °F 93% 29.96 in 1.5 mi ENE 4.6 mph - 0.00 in Snow Light Snow
9:13 AM 30.2 °F 25.4 °F 28.4 °F 93% 29.96 in 2.0 mi ENE 4.6 mph - 0.00 in Snow Light Snow
9:15 AM 30.2 °F 25.4 °F 28.4 °F 93% 29.96 in 1.8 mi ENE 4.6 mph - 0.00 in Snow Light Snow
9:17 AM 30.2 °F 25.4 °F 28.4 °F 93% 29.97 in 3.0 mi ENE 4.6 mph - 0.00 in Snow Light Snow
9:53 AM 32.0 °F 24.8 °F 28.9 °F 88% 29.96 in 7.0 mi East 8.1 mph - 0.00 in Snow Light Snow
10:53 AM 34.0 °F 31.0 °F 28.9 °F 82% 29.96 in 4.0 mi ESE 3.5 mph - 0.00 in Snow Light Snow
11:02 AM 33.8 °F - 28.4 °F 81% 29.97 in 1.2 mi Calm Calm - 0.00 in Snow Light Snow
11:05 AM 33.8 °F - 28.4 °F 81% 29.97 in 0.5 mi Calm Calm - 0.00 in Snow Snow
11:12 AM 33.8 °F 30.8 °F 30.2 °F 87% 29.97 in 0.5 mi SSE 3.5 mph - 0.01 in Snow Snow
11:27 AM 33.8 °F 30.8 °F 33.8 °F 100% 29.96 in 1.0 mi ESE 3.5 mph - 0.02 in Snow Light Snow
11:32 AM 33.8 °F 30.8 °F 32.0 °F 93% 29.96 in 2.5 mi ESE 3.5 mph - 0.02 in Snow Light Snow
11:40 AM 33.8 °F 27.7 °F 33.8 °F 100% 29.96 in 4.0 mi East 6.9 mph - 0.02 in Snow Light Snow
11:53 AM 33.1 °F 28.7 °F 30.9 °F 92% 29.96 in 5.0 mi East 4.6 mph - 0.02 in Snow Light Snow
12:05 PM 33.8 °F 29.6 °F 30.2 °F 87% 29.97 in 1.5 mi East 4.6 mph - 0.01 in Snow Light Snow
12:27 PM 33.8 °F 28.6 °F 32.0 °F 93% 29.96 in 0.8 mi North 5.8 mph - 0.02 in Fog , Snow Light Snow
12:53 PM 33.1 °F 27.7 °F 32.0 °F 96% 29.96 in 3.0 mi NE 5.8 mph - 0.02 in Snow Light Snow
1:06 PM 33.8 °F - 33.8 °F 100% 29.96 in 1.5 mi Calm Calm - 0.01 in Snow Light Snow
1:10 PM 33.8 °F 27.0 °F 33.8 °F 100% 29.96 in 2.5 mi SW 8.1 mph - 0.01 in Snow Light Snow
1:13 PM 35.6 °F 28.6 °F 33.8 °F 93% 29.96 in 4.0 mi SW 9.2 mph - 0.01 in Snow Light Snow
1:38 PM 35.6 °F 31.7 °F 30.2 °F 81% 29.97 in 1.5 mi SSE 4.6 mph - 0.01 in Snow Light Snow
1:49 PM 35.6 °F 31.7 °F 33.8 °F 93% 29.97 in 7.0 mi South 4.6 mph - 0.02 in Snow Light Snow
1:53 PM 35.1 °F 31.0 °F 34.0 °F 96% 29.97 in 8.0 mi SSE 4.6 mph - 0.02 in Snow Light Snow
2:24 PM 35.6 °F 29.9 °F 30.2 °F 81% 29.96 in 10.0 mi East 6.9 mph - 0.00 in   Mostly Cloudy
2:35 PM 35.6 °F 29.9 °F 32.0 °F 87% 29.96 in 2.0 mi SW 6.9 mph - 0.00 in Snow Light Snow
2:48 PM 33.8 °F 27.0 °F 33.8 °F 100% 29.96 in 7.0 mi WNW 8.1 mph - 0.02 in Snow Light Snow
2:53 PM 35.1 °F 29.3 °F 33.1 °F 92% 29.96 in 7.0 mi West 6.9 mph - 0.02 in Snow Light Snow
3:01 PM 35.6 °F 31.7 °F 33.8 °F 93% 29.96 in 10.0 mi West 4.6 mph - N/A   Overcast
3:53 PM 36.0 °F 31.1 °F 30.9 °F 82% 29.94 in 10.0 mi ESE 5.8 mph - N/A   Mostly Cloudy
4:53 PM 37.0 °F 33.3 °F 30.9 °F 79% 29.92 in 10.0 mi SSE 4.6 mph - N/A   Mostly Cloudy
5:20 PM 37.4 °F 30.3 °F 30.2 °F 75% 29.91 in 8.0 mi South 10.4 mph 17.3 mph 0.00 in Snow Light Snow
5:24 PM 35.6 °F 26.2 °F 30.2 °F 81% 29.92 in 2.0 mi SSW 15.0 mph 19.6 mph 0.01 in Snow Light Snow
5:31 PM 33.8 °F 25.8 °F 32.0 °F 93% 29.91 in 10.0 mi South 10.4 mph 19.6 mph 0.01 in Snow Light Snow
5:53 PM 35.1 °F 26.4 °F 34.0 °F 96% 29.91 in 9.0 mi SSE 12.7 mph - 0.01 in   Mostly Cloudy
6:53 PM 34.0 °F 26.0 °F 32.0 °F 92% 29.88 in 10.0 mi ESE 10.4 mph - N/A   Overcast
7:20 PM 35.6 °F 27.1 °F 32.0 °F 87% 29.88 in 10.0 mi SE 12.7 mph - N/A   Overcast
7:38 PM 33.8 °F 25.8 °F 32.0 °F 93% 29.87 in 10.0 mi ESE 10.4 mph - N/A   Overcast
7:53 PM 34.0 °F 26.6 °F 32.0 °F 92% 29.87 in 6.0 mi East 9.2 mph - 0.00 in Snow Light Snow
8:15 PM 33.8 °F 25.8 °F 32.0 °F 93% 29.86 in 5.0 mi ESE 10.4 mph - 0.00 in Snow Light Snow
8:53 PM 34.0 °F 26.0 °F 32.0 °F 92% 29.86 in 7.0 mi East 10.4 mph - 0.00 in Snow Light Snow
9:19 PM 33.8 °F 27.0 °F 30.2 °F 87% 29.85 in 10.0 mi ESE 8.1 mph - 0.00 in   Overcast
9:48 PM 35.6 °F 29.9 °F 30.2 °F 81% 29.84 in 10.0 mi SE 6.9 mph 17.3 mph 0.00 in   Mostly Cloudy
9:53 PM 35.1 °F 26.9 °F 30.0 °F 82% 29.84 in 10.0 mi ESE 11.5 mph 17.3 mph 0.00 in   Overcast
10:53 PM 34.0 °F 26.6 °F 30.9 °F 89% 29.81 in 10.0 mi ESE 9.2 mph 18.4 mph 0.01 in   Overcast
11:07 PM 35.6 °F 26.6 °F 30.2 °F 81% 29.82 in 1.8 mi SSW 13.8 mph 18.4 mph 0.00 in Snow Light Snow
11:14 PM 33.8 °F 24.8 °F 32.0 °F 93% 29.82 in 0.8 mi South 12.7 mph 20.7 mph 0.03 in Snow Light Snow
11:22 PM 33.8 °F 26.4 °F 32.0 °F 93% 29.82 in 1.0 mi SSW 9.2 mph - 0.07 in Snow Light Snow
11:35 PM 33.8 °F 29.6 °F 32.0 °F 93% 29.81 in 2.0 mi SSE 4.6 mph - 0.07 in Snow Light Snow
11:49 PM 33.8 °F 27.0 °F 33.8 °F 100% 29.81 in 7.0 mi ESE 8.1 mph - 0.07 in Snow Light Snow
11:53 PM 33.1 °F 26.1 °F 33.1 °F 100% 29.81 in 8.0 mi SE 8.1 mph - 0.07 in Snow Light Snow